1998-067QM

Last updated on Fri Jul 19 2019 00:02:10 GMT+0000 (Coordinated Universal Time)

1 44427U 98067QM 19199.47486423 .00002798 00000-0 53902-4 0 9997 2 44427 51.6408 205.9777 0004247 143.7505 216.3773 15.51647944 2407
UTC large
Height (km)
Speed (km/s)
/
Latitude / Longitude
Inclination (degrees)
Orbital Period (minutes)
Azimuth
Elevation
Range (km)
Doppler Factor

Next 0 passes for location: London (51.5072 / 0.1276)

Sorry there are no passes over London.